This demonstration page uses our WeatherBlox Daily Observations layout. Learn more.

Hourly Observations for April 21, 2019

Temp ( °F °C ) Dew Point ( °F °C ) Humidity (%) Winds ( mph kmh ) Pressure ( in mb ) Visibility ( mi km ) Precip ( " mm )
12:15 am 00:15 Clear 64 17.5 49 9.6 60 60 S 14 22 29.63 1003 10 16.0934 0 0
12:35 am 00:35 Clear 63 17 49 9.6 62 62 S 12 19 29.63 1003 10 16.0934 0 0
12:55 am 00:55 Clear 62 16.9 49 9.5 62 62 SSE 13 20 29.63 1004 10 16.0934 0 0
1:15 am 01:15 Clear 64 17.5 49 9.3 59 59 SSE 15 24 29.62 1003 10 16.0934 0 0
1:35 am 01:35 Clear 63 17.2 49 9.2 60 60 SSE 13 20 29.62 1003 10 16.0934 0 0
1:55 am 01:55 Clear 62 16.6 48 9.1 61 61 SSE 13 20 29.62 1003 10 16.0934 0 0
2:15 am 02:15 Clear 60 15.8 48 9.1 65 65 SSE 12 19 29.62 1003 10 16.0934 0 0
2:35 am 02:35 Clear 59 14.9 48 9.1 68 68 SSE 12 19 29.63 1003 10 16.0934 0 0
2:55 am 02:55 Clear 58 14.3 49 9.3 72 72 SE 8 13 29.64 1004 10 16.0934 0 0
3:15 am 03:15 Clear 57 13.9 49 9.3 74 74 SE 10 17 29.63 1003 10 16.0934 0 0
3:35 am 03:35 Clear 57 13.8 49 9.5 75 75 SSE 10 17 29.62 1003 10 16.0934 0 0
3:55 am 03:55 Clear 56 13.5 49 9.5 77 77 SSE 10 17 29.61 1003 10 16.0934 0 0
4:15 am 04:15 Clear 56 13.5 49 9.5 77 77 SSE 9 15 29.61 1003 10 16.0934 0 0
4:35 am 04:35 Clear 55 13 49 9.5 79 79 SSE 9 15 29.62 1003 10 16.0934 0 0
4:55 am 04:55 Clear 55 12.5 49 9.2 80 80 SSE 9 15 29.61 1003 10 16.0934 0 0
5:15 am 05:15 Clear 55 12.8 49 9.3 79 79 SSE 10 17 29.6 1002 10 16.0934 0 0
5:35 am 05:35 Clear 55 13 49 9.5 79 79 SSE 10 17 29.6 1002 10 16.0934 0 0
5:55 am 05:55 Clear 55 13 49 9.5 79 79 SSE 9 15 29.6 1002 10 16.0934 0 0
6:15 am 06:15 Clear 55 13 49 9.5 79 79 SSE 9 15 29.6 1002 10 16.0934 0 0
6:35 am 06:35 Clear 55 12.7 49 9.3 80 80 SSE 9 15 29.6 1002 10 16.0934 0 0
6:55 am 06:55 Sunny 55 12.5 49 9.3 81 81 SE 9 15 29.6 1002 10 16.0934 0 0
7:15 am 07:15 Sunny 55 13 49 9.4 79 79 SE 9 15 29.6 1002 10 16.0934 0 0
7:35 am 07:35 Sunny 55 12.9 49 9.3 79 79 SE 12 19 29.61 1003 10 16.0934 0 0
7:55 am 07:55 Sunny 55 12.9 49 9.5 80 80 SE 12 19 29.61 1003 10 16.0934 0 0
8:15 am 08:15 Sunny 57 13.7 50 10 79 79 SSE 10 17 29.6 1002 10 16.0934 0 0
8:35 am 08:35 Sunny 57 14 50 10 77 77 SSE 8 13 29.6 1002 10 16.0934 0 0
8:55 am 08:55 Sunny 58 14.7 50 10.1 74 74 SSE 9 15 29.6 1002 10 16.0934 0 0
9:15 am 09:15 Sunny 63 17.1 51 10.5 65 65 SSE 14 22 29.57 1001 10 16.0934 0 0
9:35 am 09:35 Sunny 62 16.9 50 9.9 64 64 SSE 9 15 29.57 1001 10 16.0934 0 0
9:55 am 09:55 Sunny 65 18.2 51 10.4 61 61 SSE 9 15 29.55 1001 10 16.0934 0 0
10:15 am 10:15 Sunny 66 18.8 51 10.7 60 60 SSE 15 24 29.55 1001 10 16.0934 0 0
10:35 am 10:35 Sunny 67 19.5 51 10.4 56 56 S 14 22 29.55 1001 10 16.0934 0 0
10:55 am 10:55 Sunny 68 19.9 51 10.6 55 55 SE 16 26 29.54 1000 10 16.0934 0 0
11:15 am 11:15 Sunny 67 19.6 51 10.8 57 57 SE 13 20 29.54 1000 10 16.0934 0 0
11:35 am 11:35 Sunny 69 20.4 51 10.6 54 54 S 12 19 29.54 1001 10 16.0934 0 0
11:55 am 11:55 Sunny 70 21.1 52 10.9 52 52 SSE 10 17 29.55 1001 10 16.0934 0 0
12:15 pm 12:15 Sunny 70 21 51 10.5 51 51 S 9 15 29.55 1001 10 16.0934 0 0
12:35 pm 12:35 Sunny 72 22.2 51 10.7 48 48 SE 8 13 29.52 1000 10 16.0934 0 0
12:55 pm 12:55 Sunny 74 23.3 52 11.1 46 46 SE 10 17 29.51 999 10 16.0934 0 0
1:15 pm 13:15 Sunny 74 23.5 52 11 45 45 SE 15 24 29.51 999 10 16.0934 0 0
1:35 pm 13:35 Sunny 76 24.4 51 10.6 42 42 SSE 12 19 29.5 999 10 16.0934 0 0
1:55 pm 13:55 Sunny 77 24.9 51 10.7 41 41 SSE 10 17 29.5 999 10 16.0934 0 0
2:15 pm 14:15 Sunny 78 25.5 51 10.3 38 38 SSW 10 17 29.49 999 10 16.0934 0 0
2:35 pm 14:35 Sunny 78 25.7 51 10.5 38 38 SSE 13 20 29.49 999 10 16.0934 0 0
2:55 pm 14:55 Sunny 79 26.2 51 10.4 37 37 SSE 8 13 29.49 999 10 16.0934 0 0
3:15 pm 15:15 Sunny 80 26.6 51 10.6 37 37 SSE 14 22 29.49 998 10 16.0934 0 0
3:35 pm 15:35 Sunny 81 27.1 50 10 34 34 SSW 9 15 29.47 998 10 16.0934 0 0
3:55 pm 15:55 Sunny 82 27.5 50 10 33 33 SSE 7 11 29.46 998 10 16.0934 0 0
4:15 pm 16:15 Sunny 82 27.9 50 9.8 32 32 SSE 5 7 29.46 997 10 16.0934 0 0
4:35 pm 16:35 Sunny 83 28.1 48 9.1 30 30 S 7 11 29.44 997 10 16.0934 0 0
4:55 pm 16:55 Sunny 83 28.5 49 9.4 30 30 SE 3 6 29.44 997 10 16.0934 0 0
5:15 pm 17:15 Sunny 83 28.4 48 9 30 30 SE 10 17 29.43 997 10 16.0934 0 0
5:35 pm 17:35 Sunny 83 28.6 47 8.1 28 28 SE 5 7 29.43 997 10 16.0934 0 0
5:55 pm 17:55 Partly Cloudy 85 29.5 46 7.9 26 26 SSW 16 26 29.43 997 10 16.0934 0 0
6:15 pm 18:15 Partly Cloudy 84 28.7 45 7 25 25 SSW 10 17 29.45 997 10 16.0934 0 0
6:35 pm 18:35 Sunny 83 28.5 47 8.1 28 28 SSW 9 15 29.45 997 10 16.0934 0 0
6:55 pm 18:55 Sunny 78 25.5 52 11.3 41 41 N 20 31 29.48 998 10 16.0934 0 0
7:15 pm 19:15 Sunny 75 24 53 11.6 46 46 N 24 39 29.52 1000 10 16.0934 0 0
7:35 pm 19:35 Sunny 71 21.7 54 12 54 54 N 20 31 29.55 1001 10 16.0934 0 0
7:55 pm 19:55 Sunny 68 20.1 53 11.7 59 59 N 23 37 29.59 1002 10 16.0934 0 0
8:15 pm 20:15 Sunny 67 19.5 53 11.6 60 60 NNW 20 31 29.62 1003 10 16.0934 0 0
8:35 pm 20:35 Clear 66 18.8 53 11.4 62 62 NNW 17 28 29.64 1004 10 16.0934 0 0
8:55 pm 20:55 Clear 65 18.2 52 11.2 64 64 NNW 14 22 29.66 1004 10 16.0934 0 0
9:15 pm 21:15 Partly Cloudy 64 18 52 11.1 64 64 NW 14 22 29.68 1005 10 16.0934 0 0
9:35 pm 21:35 Mostly Cloudy 64 17.8 52 11.1 65 65 NW 13 20 29.71 1006 10 16.0934 0 0
9:55 pm 21:55 Mostly Cloudy 64 18 52 11 64 64 Calm 29.74 1007 10 16.0934 0 0
10:15 pm 22:15 Cloudy with Nearby Thunderstorms 65 18.3 52 11.3 64 64 S 8 13 29.76 1008 10 16.0934 0 0
10:35 pm 22:35 Cloudy with Thunderstorms 59 15.1 55 12.7 86 86 WSW 14 22 29.8 1009 7 11.26538 0.06 1.524
10:55 pm 22:55 Cloudy with Heavy Thunderstorms 57 14.1 56 13.4 96 96 WNW 15 24 29.82 1010 3 4.82802 0.44 11.176
11:15 pm 23:15 Cloudy with Heavy Thunderstorms 56 13.5 55 13 97 97 WNW 10 17 29.81 1010 3 4.82802 0.28 7.112
11:35 pm 23:35 Cloudy with Light Thunderstorms 57 13.9 56 13.4 97 97 NW 10 17 29.8 1009 7 11.26538 0.45 11.43
11:55 pm 23:55 Cloudy with Light Rain 56 13.6 56 13.3 98 98 NNW 10 17 29.79 1009 7 11.26538 0.48 12.192

Powered by AerisWeather